AAL2205 KDAB-KCLT

Flight info

Callsign AAL2205
Flight time 1h 10m
Altitude 35000
Route ROYES7 CRG VIYAP CHECR STOCR4
Aircraft A319/M-SDE3FGHIRWY/LB1

Departure

Time 2026-04-23 18:05
Airport Daytona Beach International Airport (KDAB)

Arrival

Time 2026-04-23 19:15
Airport Charlotte Douglas International Airport (KCLT)
Time Latitude Longitude Altitude Speed Heading
2026-04-23 17:46 29.18298 -81.06169 31 ft 0 kts 72°
2026-04-23 17:58 29.18295 -81.06179 31 ft 2 kts 72°
2026-04-23 17:58 29.18290 -81.06195 31 ft 2 kts 72°
2026-04-23 17:58 29.18286 -81.06210 31 ft 1 kts 97°
2026-04-23 17:59 29.18293 -81.06222 31 ft 1 kts 155°
2026-04-23 17:59 29.18301 -81.06225 31 ft 0 kts 189°
2026-04-23 17:59 29.18308 -81.06222 31 ft 0 kts 192°
2026-04-23 18:01 29.18307 -81.06222 31 ft 1 kts 192°
2026-04-23 18:01 29.18280 -81.06228 31 ft 7 kts 187°
2026-04-23 18:01 29.18211 -81.06210 31 ft 13 kts 159°
2026-04-23 18:02 29.18114 -81.06161 31 ft 16 kts 163°
2026-04-23 18:02 29.18030 -81.06241 31 ft 19 kts 245°
2026-04-23 18:02 29.17968 -81.06394 31 ft 23 kts 246°
2026-04-23 18:02 29.17896 -81.06573 31 ft 26 kts 246°
2026-04-23 18:03 29.17816 -81.06772 31 ft 27 kts 244°
2026-04-23 18:03 29.17732 -81.06983 31 ft 31 kts 245°
2026-04-23 18:03 29.17638 -81.07210 31 ft 31 kts 246°
2026-04-23 18:03 29.17539 -81.07439 31 ft 32 kts 239°
2026-04-23 18:04 29.17437 -81.07626 31 ft 21 kts 224°
2026-04-23 18:04 29.17334 -81.07624 31 ft 13 kts 128°
2026-04-23 18:04 29.17364 -81.07509 31 ft 22 kts 66°
2026-04-23 18:04 29.17545 -81.07061 32 ft 100 kts 65°
2026-04-23 18:05 29.17922 -81.06129 134 ft 150 kts 66°
2026-04-23 18:05 29.18376 -81.05063 879 ft 150 kts 64°
2026-04-23 18:05 29.18852 -81.04052 1703 ft 145 kts 63°
2026-04-23 18:05 29.19343 -81.03048 2223 ft 153 kts 63°
2026-04-23 18:06 29.20066 -81.02081 2602 ft 174 kts 33°
2026-04-23 18:06 29.21203 -81.01432 3046 ft 190 kts 35°
2026-04-23 18:06 29.22119 -81.00303 3510 ft 203 kts 58°
2026-04-23 18:06 29.22873 -80.98865 3975 ft 223 kts 62°
2026-04-23 18:07 29.23668 -80.97238 4476 ft 245 kts 63°
2026-04-23 18:07 29.24523 -80.95467 5051 ft 262 kts 63°
2026-04-23 18:07 29.25509 -80.93698 5805 ft 272 kts 48°
2026-04-23 18:07 29.27102 -80.92519 6637 ft 280 kts 21°
2026-04-23 18:08 29.28372 -80.92255 7187 ft 285 kts
2026-04-23 18:08 29.30902 -80.93053 8284 ft 294 kts 327°
2026-04-23 18:08 29.32468 -80.94594 9132 ft 298 kts 316°
2026-04-23 18:08 29.34114 -80.96014 9903 ft 301 kts 334°
2026-04-23 18:09 29.36029 -80.97006 10609 ft 308 kts 339°
2026-04-23 18:09 29.38043 -80.97952 11096 ft 323 kts 338°
2026-04-23 18:09 29.40137 -80.98975 11812 ft 329 kts 337°
2026-04-23 18:09 29.42227 -81.00042 12587 ft 332 kts 336°
2026-04-23 18:10 29.44323 -81.01146 13341 ft 335 kts 335°
2026-04-23 18:10 29.46446 -81.02287 14083 ft 338 kts 334°
2026-04-23 18:10 29.48584 -81.03451 14834 ft 341 kts 334°
2026-04-23 18:10 29.50711 -81.04619 15579 ft 343 kts 334°
2026-04-23 18:11 29.52871 -81.05808 16318 ft 346 kts 333°
2026-04-23 18:11 29.55015 -81.06993 17025 ft 346 kts 333°
2026-04-23 18:11 29.57200 -81.08202 17711 ft 349 kts 333°
2026-04-23 18:11 29.59401 -81.09421 18409 ft 351 kts 333°
2026-04-23 18:12 29.61591 -81.10633 19087 ft 353 kts 333°
2026-04-23 18:12 29.63804 -81.11860 19745 ft 355 kts 333°
2026-04-23 18:12 29.66024 -81.13090 20375 ft 358 kts 333°
2026-04-23 18:12 29.68274 -81.14338 20996 ft 361 kts 333°
2026-04-23 18:13 29.70530 -81.15590 21594 ft 363 kts 333°
2026-04-23 18:13 29.72826 -81.16865 22174 ft 366 kts 333°
2026-04-23 18:13 29.75108 -81.18132 22728 ft 369 kts 333°
2026-04-23 18:13 29.77439 -81.19428 23277 ft 373 kts 333°
2026-04-23 18:14 29.79788 -81.20734 23816 ft 376 kts 333°
2026-04-23 18:14 29.82143 -81.22044 24347 ft 380 kts 333°
2026-04-23 18:14 29.84539 -81.23378 24877 ft 383 kts 333°
2026-04-23 18:14 29.86931 -81.24712 25394 ft 386 kts 333°
2026-04-23 18:15 29.89363 -81.26067 25913 ft 389 kts 333°
2026-04-23 18:15 29.91799 -81.27426 26443 ft 392 kts 333°
2026-04-23 18:15 29.94270 -81.28805 26972 ft 395 kts 333°
2026-04-23 18:15 29.96733 -81.30180 27487 ft 398 kts 332°
2026-04-23 18:16 29.99247 -81.31584 27995 ft 401 kts 332°
2026-04-23 18:16 30.01749 -81.32982 28478 ft 404 kts 332°
2026-04-23 18:16 30.04277 -81.34396 28969 ft 407 kts 332°
2026-04-23 18:17 30.09421 -81.37276 29939 ft 413 kts 332°
2026-04-23 18:17 30.11986 -81.38714 30385 ft 416 kts 333°
2026-04-23 18:17 30.14620 -81.40192 30841 ft 418 kts 333°
2026-04-23 18:17 30.17214 -81.41649 31379 ft 417 kts 333°
2026-04-23 18:18 30.19815 -81.43109 31944 ft 415 kts 333°
2026-04-23 18:18 30.22391 -81.44555 32484 ft 413 kts 333°
2026-04-23 18:18 30.24981 -81.46010 33019 ft 411 kts 333°
2026-04-23 18:18 30.27550 -81.47398 33521 ft 410 kts 336°
2026-04-23 18:19 30.30248 -81.48563 33973 ft 411 kts 341°
2026-04-23 18:19 30.33006 -81.49443 34382 ft 413 kts 346°
2026-04-23 18:19 30.35816 -81.50041 34778 ft 415 kts 351°
2026-04-23 18:19 30.38714 -81.50358 35146 ft 418 kts 356°
2026-04-23 18:20 30.44546 -81.50182 35265 ft 419 kts
2026-04-23 18:20 30.50348 -81.49689 35287 ft 417 kts
2026-04-23 18:21 30.56131 -81.49204 35197 ft 416 kts
2026-04-23 18:21 30.61903 -81.48731 35144 ft 416 kts
2026-04-23 18:22 30.67668 -81.48262 35146 ft 416 kts
2026-04-23 18:22 30.73452 -81.47792 35152 ft 416 kts
2026-04-23 18:23 30.82102 -81.47088 35166 ft 416 kts
2026-04-23 18:24 30.90782 -81.46379 35162 ft 416 kts
2026-04-23 18:25 30.99423 -81.45673 35156 ft 415 kts
2026-04-23 18:25 31.05185 -81.45203 35152 ft 415 kts
2026-04-23 18:26 31.10954 -81.44730 35148 ft 415 kts
2026-04-23 18:26 31.16700 -81.44260 35144 ft 415 kts
2026-04-23 18:27 31.22435 -81.43623 35141 ft 415 kts
2026-04-23 18:27 31.28125 -81.42250 35141 ft 417 kts 14°
2026-04-23 18:28 31.33631 -81.40182 35142 ft 417 kts 18°
2026-04-23 18:28 31.39120 -81.37935 35144 ft 417 kts 18°
2026-04-23 18:29 31.44606 -81.35690 35144 ft 417 kts 18°
2026-04-23 18:29 31.50061 -81.33462 35143 ft 417 kts 18°
2026-04-23 18:30 31.55518 -81.31232 35140 ft 416 kts 18°
2026-04-23 18:30 31.61011 -81.28985 35136 ft 417 kts 18°
2026-04-23 18:31 31.66480 -81.26746 35130 ft 417 kts 18°
2026-04-23 18:31 31.71947 -81.24504 35124 ft 416 kts 18°
2026-04-23 18:32 31.77407 -81.22263 35119 ft 416 kts 18°
2026-04-23 18:32 31.82884 -81.20012 35115 ft 416 kts 18°
2026-04-23 18:33 31.88359 -81.17758 35111 ft 416 kts 18°
2026-04-23 18:33 31.93800 -81.15517 35109 ft 416 kts 18°
2026-04-23 18:34 31.99274 -81.13259 35108 ft 416 kts 18°
2026-04-23 18:34 32.04701 -81.11018 35106 ft 416 kts 18°
2026-04-23 18:35 32.10172 -81.08755 35103 ft 416 kts 18°
2026-04-23 18:35 32.15612 -81.06502 35112 ft 415 kts 18°
2026-04-23 18:36 32.21071 -81.04238 35119 ft 414 kts 18°
2026-04-23 18:36 32.26481 -81.01993 35119 ft 414 kts 18°
2026-04-23 18:37 32.31920 -80.99732 35124 ft 414 kts 18°
2026-04-23 18:37 32.37365 -80.97465 35127 ft 414 kts 18°
2026-04-23 18:38 32.42764 -80.95215 35126 ft 413 kts 18°
2026-04-23 18:38 32.48217 -80.92940 35122 ft 413 kts 18°
2026-04-23 18:39 32.53642 -80.90674 35116 ft 413 kts 18°
2026-04-23 18:39 32.59036 -80.88417 35111 ft 413 kts 18°
2026-04-23 18:40 32.64449 -80.86150 35109 ft 413 kts 17°
2026-04-23 18:40 32.69865 -80.83833 35109 ft 414 kts 20°
2026-04-23 18:41 32.75105 -80.80945 35110 ft 415 kts 26°
2026-04-23 18:41 32.80163 -80.77677 35112 ft 415 kts 26°
2026-04-23 18:42 32.85202 -80.74394 35113 ft 414 kts 26°
2026-04-23 18:42 32.90258 -80.71103 35113 ft 414 kts 26°
2026-04-23 18:43 32.95303 -80.67817 35114 ft 414 kts 26°
2026-04-23 18:43 33.00371 -80.64513 35115 ft 414 kts 26°
2026-04-23 18:44 33.05409 -80.61225 35116 ft 414 kts 26°
2026-04-23 18:44 33.10432 -80.57943 35114 ft 414 kts 26°
2026-04-23 18:45 33.15493 -80.54633 35109 ft 413 kts 26°
2026-04-23 18:45 33.20502 -80.51351 35104 ft 413 kts 26°
2026-04-23 18:46 33.25547 -80.48041 35101 ft 413 kts 26°
2026-04-23 18:46 33.30566 -80.44744 35100 ft 413 kts 26°
2026-04-23 18:47 33.35592 -80.41438 35100 ft 412 kts 26°
2026-04-23 18:47 33.40623 -80.38125 35101 ft 412 kts 26°
2026-04-23 18:47 33.43131 -80.36472 34890 ft 413 kts 26°
2026-04-23 18:48 33.45644 -80.34814 34426 ft 414 kts 27°
2026-04-23 18:48 33.48154 -80.33157 33855 ft 416 kts 27°
2026-04-23 18:48 33.50702 -80.31473 33249 ft 419 kts 27°
2026-04-23 18:48 33.53247 -80.29791 32627 ft 421 kts 27°
2026-04-23 18:49 33.55822 -80.28087 31944 ft 423 kts 27°
2026-04-23 18:49 33.58360 -80.26407 31171 ft 423 kts 27°
2026-04-23 18:49 33.60934 -80.24701 30455 ft 421 kts 27°
2026-04-23 18:49 33.63473 -80.23014 29800 ft 417 kts 27°
2026-04-23 18:50 33.65165 -80.21890 29475 ft 411 kts 27°
2026-04-23 18:50 33.68468 -80.19692 28899 ft 403 kts 27°
2026-04-23 18:50 33.70886 -80.18084 28465 ft 401 kts 27°
2026-04-23 18:50 33.73336 -80.16455 28012 ft 399 kts 27°
2026-04-23 18:51 33.75734 -80.14859 27588 ft 396 kts 27°
2026-04-23 18:51 33.78122 -80.13269 27181 ft 394 kts 27°
2026-04-23 18:51 33.80530 -80.11663 26753 ft 391 kts 27°
2026-04-23 18:51 33.82875 -80.10098 26326 ft 388 kts 27°
2026-04-23 18:52 33.85240 -80.08520 25887 ft 385 kts 27°
2026-04-23 18:52 33.87574 -80.06961 25442 ft 382 kts 27°
2026-04-23 18:52 33.89875 -80.05424 25007 ft 379 kts 27°
2026-04-23 18:52 33.92176 -80.03883 24562 ft 377 kts 28°
2026-04-23 18:53 33.94437 -80.02369 24124 ft 374 kts 28°
2026-04-23 18:53 33.96707 -80.00848 23691 ft 371 kts 28°
2026-04-23 18:53 33.99035 -79.99636 23232 ft 366 kts 12°
2026-04-23 18:53 34.01568 -79.99471 22853 ft 362 kts 351°
2026-04-23 18:54 34.03986 -80.00369 22792 ft 366 kts 334°
2026-04-23 18:54 34.06263 -80.01704 22752 ft 368 kts 333°
2026-04-23 18:54 34.08575 -80.03090 22668 ft 369 kts 333°
2026-04-23 18:54 34.10862 -80.04459 22388 ft 368 kts 333°
2026-04-23 18:55 34.13136 -80.05814 22031 ft 366 kts 333°
2026-04-23 18:55 34.15422 -80.07170 21645 ft 363 kts 333°
2026-04-23 18:55 34.17667 -80.08499 21235 ft 361 kts 333°
2026-04-23 18:55 34.19910 -80.09827 20811 ft 358 kts 333°
2026-04-23 18:56 34.21403 -80.10709 20524 ft 356 kts 333°
2026-04-23 18:56 34.24365 -80.12463 19926 ft 352 kts 333°
2026-04-23 18:56 34.26558 -80.13762 19494 ft 350 kts 333°
2026-04-23 18:56 34.28720 -80.15044 19071 ft 348 kts 334°
2026-04-23 18:57 34.30891 -80.16333 18649 ft 345 kts 334°
2026-04-23 18:57 34.33026 -80.17600 18232 ft 343 kts 334°
2026-04-23 18:57 34.35164 -80.18868 17814 ft 341 kts 334°
2026-04-23 18:57 34.37280 -80.20123 17397 ft 338 kts 334°
2026-04-23 18:58 34.39365 -80.21364 16985 ft 336 kts 334°
2026-04-23 18:58 34.41469 -80.22615 16568 ft 334 kts 334°
2026-04-23 18:58 34.43551 -80.23853 16155 ft 332 kts 334°
2026-04-23 18:58 34.45600 -80.25071 15745 ft 330 kts 334°
2026-04-23 18:59 34.47664 -80.26298 15332 ft 328 kts 334°
2026-04-23 18:59 34.49692 -80.27505 14923 ft 326 kts 334°
2026-04-23 18:59 34.51730 -80.28718 14511 ft 323 kts 334°
2026-04-23 18:59 34.53727 -80.29908 14108 ft 321 kts 333°
2026-04-23 19:00 34.55745 -80.31110 13697 ft 320 kts 333°
2026-04-23 19:00 34.57719 -80.32289 13296 ft 317 kts 333°
2026-04-23 19:00 34.59677 -80.33530 12893 ft 315 kts 329°
2026-04-23 19:00 34.61508 -80.34955 12495 ft 312 kts 324°
2026-04-23 19:01 34.63219 -80.36536 12102 ft 310 kts 321°
2026-04-23 19:01 34.64909 -80.38166 11707 ft 308 kts 321°
2026-04-23 19:01 34.66563 -80.39769 11407 ft 301 kts 321°
2026-04-23 19:01 34.68165 -80.41318 11242 ft 289 kts 321°
2026-04-23 19:02 34.69186 -80.42306 11139 ft 282 kts 320°
2026-04-23 19:02 34.71222 -80.44299 10677 ft 278 kts 320°
2026-04-23 19:02 34.72699 -80.45752 10335 ft 275 kts 320°
2026-04-23 19:02 34.74182 -80.47210 9990 ft 273 kts 320°
2026-04-23 19:03 34.75666 -80.48670 9645 ft 271 kts 320°
2026-04-23 19:03 34.77115 -80.50094 9306 ft 269 kts 320°
2026-04-23 19:03 34.78571 -80.51525 8963 ft 267 kts 320°
2026-04-23 19:03 34.80016 -80.52944 8625 ft 265 kts 320°
2026-04-23 19:04 34.81435 -80.54337 8291 ft 264 kts 320°
2026-04-23 19:04 34.82861 -80.55753 7947 ft 264 kts 320°
2026-04-23 19:04 34.84286 -80.57169 7604 ft 263 kts 320°
2026-04-23 19:04 34.85685 -80.58557 7269 ft 262 kts 320°
2026-04-23 19:05 34.87089 -80.59949 6936 ft 261 kts 320°
2026-04-23 19:05 34.88393 -80.61484 6576 ft 260 kts 302°
2026-04-23 19:05 34.88961 -80.63522 6294 ft 254 kts 273°
2026-04-23 19:05 34.88750 -80.65580 6191 ft 242 kts 257°
2026-04-23 19:06 34.88366 -80.67538 6108 ft 230 kts 257°
2026-04-23 19:06 34.88010 -80.69381 6026 ft 220 kts 257°
2026-04-23 19:06 34.87675 -80.71182 5976 ft 219 kts 259°
2026-04-23 19:06 34.87445 -80.73032 5971 ft 224 kts 265°
2026-04-23 19:07 34.87366 -80.74934 5969 ft 224 kts 268°
2026-04-23 19:07 34.87263 -80.76837 5968 ft 225 kts 265°
2026-04-23 19:07 34.87136 -80.78717 5968 ft 225 kts 265°
2026-04-23 19:07 34.87004 -80.80619 5968 ft 225 kts 265°
2026-04-23 19:08 34.86870 -80.82507 5968 ft 225 kts 265°
2026-04-23 19:08 34.86860 -80.84407 5958 ft 225 kts 284°
2026-04-23 19:08 34.87669 -80.85973 5967 ft 227 kts 318°
2026-04-23 19:08 34.88908 -80.87175 5865 ft 227 kts 321°
2026-04-23 19:09 34.90149 -80.88385 5737 ft 226 kts 319°
2026-04-23 19:09 34.91318 -80.89595 5671 ft 217 kts 319°
2026-04-23 19:09 34.92583 -80.90550 5631 ft 213 kts 335°
2026-04-23 19:09 34.94008 -80.91082 5481 ft 215 kts 348°
2026-04-23 19:10 34.95487 -80.91319 5213 ft 216 kts 353°
2026-04-23 19:10 34.97002 -80.91451 4938 ft 216 kts 354°
2026-04-23 19:10 34.98485 -80.91560 4670 ft 216 kts 354°
2026-04-23 19:10 34.99987 -80.91679 4395 ft 215 kts 354°
2026-04-23 19:11 35.01460 -80.91802 4120 ft 211 kts 354°
2026-04-23 19:11 35.02912 -80.91926 3850 ft 206 kts 354°
2026-04-23 19:11 35.04333 -80.92048 3591 ft 201 kts 354°
2026-04-23 19:11 35.05703 -80.92165 3340 ft 195 kts 354°
2026-04-23 19:12 35.06612 -80.92244 3174 ft 192 kts 354°
2026-04-23 19:12 35.08326 -80.92396 2950 ft 182 kts 354°
2026-04-23 19:12 35.09589 -80.92508 2709 ft 179 kts 354°
2026-04-23 19:12 35.10803 -80.92613 2475 ft 174 kts 354°
2026-04-23 19:13 35.11956 -80.92711 2267 ft 158 kts 353°
2026-04-23 19:13 35.13008 -80.92800 2033 ft 144 kts 353°
2026-04-23 19:13 35.13966 -80.92883 1834 ft 133 kts 353°
2026-04-23 19:13 35.14884 -80.92963 1683 ft 132 kts 354°
2026-04-23 19:14 35.15799 -80.93043 1526 ft 132 kts 354°
2026-04-23 19:14 35.16721 -80.93121 1361 ft 132 kts 354°
2026-04-23 19:14 35.17634 -80.93201 1191 ft 131 kts 355°
2026-04-23 19:14 35.18547 -80.93279 1018 ft 131 kts 355°
2026-04-23 19:15 35.19460 -80.93359 844 ft 130 kts 356°
2026-04-23 19:15 35.20356 -80.93434 710 ft 126 kts 358°
2026-04-23 19:15 35.21101 -80.93498 722 ft 82 kts 355°
2026-04-23 19:15 35.21502 -80.93533 729 ft 33 kts 356°
2026-04-23 19:16 35.21678 -80.93549 732 ft 21 kts 349°
2026-04-23 19:16 35.21696 -80.93649 730 ft 11 kts 230°
2026-04-23 19:16 35.21713 -80.93685 730 ft 6 kts 356°
2026-04-23 19:17 35.21827 -80.93694 732 ft 9 kts 356°
2026-04-23 19:17 35.21899 -80.93700 732 ft 11 kts 355°
2026-04-23 19:17 35.21928 -80.93771 730 ft 12 kts 245°
2026-04-23 19:17 35.21871 -80.93859 729 ft 13 kts 249°
2026-04-23 19:18 35.21918 -80.93959 727 ft 14 kts 314°
2026-04-23 19:18 35.21942 -80.94064 725 ft 13 kts 267°
2026-04-23 19:18 35.21973 -80.94158 723 ft 9 kts 348°
2026-04-23 19:18 35.21995 -80.94158 723 ft 1 kts 12°
2026-04-23 19:19 35.22006 -80.94155 723 ft 0 kts 13°
2026-04-23 19:19 35.22011 -80.94154 723 ft 0 kts 10°
2026-04-23 19:20 35.22014 -80.94153 723 ft 0 kts